Zurück zum Katalog

STARLINK-31591

AktivKommunikationVLEO
NORAD 59207·PAYLOAD·🇺🇸 United States

Gestartet Mar 11, 2024 von Vandenberg Space Force Base

Loading…

Nächste Überflüge (nächste 24 Stunden)

TLE

AktuellSource: CelesTrak SupGP

Epoche: Sep 15, 2026, 02:04 UTC

1 59207C 24046G   26258.08659722  .00063138  00000+0  18654-2 0  2585
2 59207  53.1602 351.2805 0001087  81.4402  81.7131 15.34360327    17

Verfolge STARLINK-31591 in Echtzeit mit AllMySat

Download on the App Store